Wind_Speed
23 23 23 24 24 24 24 24 24 24 24 24 24 24 24 23 24 24 24 25 25 25 26 26 26 26 26 26 26 27 27 27 28 29 30 31 33 34 34 35 35 35 36
22 23 23 23 23 23 23 24 24 23 24 24 23 23 23 23 23 23 24 24 24 24 25 25 25 25 25 25 25 25 26 26 27 28 29 31 32 33 32 33 34 34 34
22 22 23 23 23 23 23 23 23 22 22 22 22 22 22 23 23 23 24 23 23 23 23 23 24 24 25 24 24 24 24 25 25 25 26 29 30 31 32 32 32 32 33
22 22 22 22 22 22 22 22 22 22 21 22 21 21 22 21 21 22 21 21 21 21 21 21 22 23 23 23 23 23 23 24 24 24 24 26 28 30 30 30 31 32 32
21 22 22 22 22 21 21 21 21 21 21 21 21 20 20 19 18 18 19 20 19 19 19 20 20 21 22 23 23 22 22 22 23 23 24 24 26 27 28 29 30 30 31
21 21 21 21 20 19 19 19 19 19 20 19 19 18 17 17 17 17 18 18 18 18 19 19 19 20 20 21 21 22 22 22 23 23 23 24 24 25 27 28 29 30 30
19 19 19 18 18 17 17 17 17 18 17 17 16 17 16 16 16 16 16 17 18 19 19 19 19 20 20 20 20 20 21 21 22 22 23 23 24 24 26 26 27 28 29
17 17 17 17 16 16 16 16 16 16 16 16 16 16 16 16 16 16 16 17 18 18 19 20 20 20 20 20 19 19 19 20 21 21 21 21 22 23 24 25 25 26 27
16 16 15 15 15 16 15 16 16 16 16 16 16 16 16 16 16 17 17 17 18 19 19 20 20 20 20 20 20 19 19 18 18 19 19 19 19 20 21 22 22 23 25
15 14 14 14 15 15 15 16 16 16 16 17 17 17 17 16 16 18 18 18 18 19 19 19 19 19 19 20 19 19 18 17 17 17 17 17 18 18 20 20 21 22 23
14 13 14 14 15 15 15 16 16 17 17 17 17 17 17 16 17 18 18 18 18 18 18 18 18 18 18 17 16 16 16 16 16 16 16 16 17 18 18 19 19 21 22
14 14 14 14 14 15 16 16 17 17 17 18 17 18 18 18 18 17 17 17 17 17 17 17 17 17 16 15 15 15 15 16 16 17 17 17 17 18 18 18 19 20 21
14 14 14 15 15 16 17 17 17 17 18 18 18 18 18 18 18 18 18 18 17 16 16 17 17 16 16 15 15 15 15 15 16 16 16 17 17 17 18 19 19 19 20
13 14 15 15 16 17 17 18 18 18 18 19 19 19 19 18 19 19 19 18 18 17 18 17 16 15 16 16 16 16 15 14 14 15 15 15 16 16 17 17 18 19 19
14 14 15 16 17 17 18 19 19 19 19 19 19 20 19 19 19 19 19 18 18 17 17 18 17 16 16 17 17 16 15 15 15 15 16 16 16 16 16 17 17 18 19
14 15 16 17 18 18 19 19 19 19 19 20 19 20 20 19 18 19 19 19 18 18 18 18 18 17 16 16 17 16 16 16 16 16 16 17 16 16 17 17 17 17 18
15 16 16 17 18 19 19 19 19 19 20 20 20 20 20 20 20 20 19 19 19 19 19 19 19 18 17 17 17 17 17 17 17 17 17 17 17 16 17 17 18 18 19
15 16 17 18 18 19 20 20 20 21 21 21 21 20 20 21 21 21 20 20 20 20 20 20 20 20 19 19 19 18 18 17 18 18 18 18 18 18 18 18 19 18 18
15 17 17 18 19 20 20 21 21 22 22 22 22 22 21 22 23 23 22 22 21 21 21 21 21 21 20 21 20 20 19 18 18 19 19 19 19 19 19 19 19 18 19
16 17 18 19 20 20 21 22 22 23 24 24 24 23 22 22 23 23 23 23 22 22 22 23 22 22 22 21 20 20 21 20 19 20 20 21 21 20 21 20 20 19 19
16 17 19 20 21 21 22 22 23 23 24 25 25 24 24 23 23 24 23 23 23 23 24 24 24 24 23 22 22 22 22 22 22 22 22 22 22 21 22 22 21 21 21
17 18 19 21 21 22 23 23 24 24 25 25 25 25 25 24 24 24 24 24 24 24 25 26 25 25 25 25 25 25 25 25 24 24 24 24 24 23 24 24 23 23 23
17 19 20 21 22 23 23 24 25 26 25 25 25 25 25 26 26 26 26 25 25 26 26 26 26 26 27 26 26 26 26 25 25 25 25 25 25 25 25 25 24 24 24
18 19 20 22 23 23 24 25 26 26 26 26 25 26 26 27 27 28 27 28 28 28 28 27 27 27 27 27 27 27 26 26 26 26 26 26 26 26 25 25 25 25 25
18 19 21 22 23 24 25 25 26 26 26 26 26 26 27 27 28 29 28 28 29 29 29 29 28 29 28 28 28 28 28 28 28 27 27 27 26 26 26 25 25 25 25
18 20 22 23 24 25 26 26 27 27 27 27 27 27 28 29 30 30 30 30 30 30 30 29 29 29 30 30 30 29 30 30 29 28 27 26 26 26 25 25 24 24 25
Wind_Direction
312 310 310 309 307 305 304 303 302 301 299 296 295 293 291 291 292 291 288 288 286 283 283 282 279 278 277 275 274 273 273 271 269 265 263 259 255 253 253 253 253 253 251
312 311 312 311 310 308 307 306 305 304 302 300 297 295 293 292 293 294 291 290 289 287 285 283 279 276 277 276 276 275 274 273 271 266 263 259 256 254 254 254 254 253 251
315 315 314 312 312 311 311 310 308 307 305 303 299 296 293 294 293 294 294 293 292 289 287 285 281 278 277 277 276 276 276 275 273 269 266 262 259 256 254 255 255 253 252
317 317 316 315 314 313 312 312 311 309 307 305 302 299 298 297 296 295 296 295 295 293 291 288 285 283 282 280 278 277 277 276 275 273 269 264 260 257 256 256 256 254 253
319 320 318 316 315 315 316 315 315 313 312 311 309 306 304 300 296 299 299 296 295 295 295 294 291 289 287 283 282 280 280 278 276 275 272 267 262 258 256 257 257 256 255
321 320 320 320 320 319 318 319 319 318 317 317 315 312 309 307 304 301 301 299 297 297 298 299 297 295 293 290 287 286 284 281 277 276 274 270 265 259 257 258 257 256 255
323 324 326 327 327 325 324 325 326 326 325 322 321 320 317 313 309 307 307 309 304 298 298 299 298 298 297 294 290 288 285 282 281 279 277 272 267 262 260 259 258 257 256
329 329 332 333 335 335 332 334 334 335 335 332 328 323 321 319 315 314 313 312 311 309 304 301 300 301 300 297 293 289 287 284 283 282 281 277 271 264 262 260 258 259 259
333 334 335 337 339 341 341 342 342 342 343 342 338 332 328 323 322 321 318 316 316 313 310 307 304 301 300 299 296 293 289 286 283 283 281 279 275 270 264 261 261 261 261
341 341 340 341 344 344 345 347 347 348 347 347 344 340 336 330 327 323 320 318 317 316 314 311 309 306 303 302 297 293 291 287 288 287 284 281 276 273 270 265 263 261 260
346 346 346 347 349 349 348 347 348 349 349 348 347 344 339 336 334 329 325 323 320 318 317 314 311 310 307 307 305 300 295 292 290 288 285 283 280 278 276 270 266 263 261
348 348 348 347 350 351 351 350 349 348 347 347 347 346 343 341 339 335 332 329 327 325 323 320 317 317 315 313 312 310 302 296 295 294 291 288 286 284 281 276 271 265 261
350 351 351 351 350 352 351 350 349 349 348 347 346 345 344 341 340 339 337 335 333 332 331 329 325 322 320 315 311 311 307 301 298 298 295 291 288 286 284 281 275 271 267
353 354 355 354 353 352 351 350 348 347 346 345 345 344 343 342 342 341 341 338 336 332 330 330 327 324 322 320 317 313 308 305 303 302 301 297 291 289 286 283 280 275 270
352 352 352 352 352 351 351 351 350 348 347 347 347 347 345 342 342 341 343 341 339 336 334 332 329 326 322 320 318 319 314 309 306 304 303 301 295 291 288 286 283 279 273
350 350 351 351 350 350 351 351 351 350 349 348 348 349 348 345 344 343 343 342 340 337 336 335 332 328 325 324 322 318 314 311 310 307 306 304 299 293 288 285 284 280 275
356 353 353 352 352 352 352 352 350 349 349 349 349 348 347 346 344 343 342 342 339 338 337 336 334 331 326 324 323 320 316 313 312 310 308 305 301 296 293 289 286 283 277
359 359 358 356 354 352 353 352 351 350 349 349 347 344 343 344 342 341 342 340 338 337 336 335 333 331 327 325 323 320 318 316 314 312 309 305 302 298 294 291 289 285 280
359 359 358 356 355 354 354 353 351 350 349 347 345 343 342 342 340 339 339 337 334 333 333 332 330 328 326 325 324 320 316 314 312 311 309 306 302 298 296 293 289 285 282
357 356 355 354 354 353 352 351 350 350 349 349 347 345 343 341 340 339 336 335 334 333 332 331 330 329 327 324 322 320 316 311 308 308 306 303 299 297 295 293 290 286 283
355 354 353 352 351 350 350 350 349 348 348 348 347 346 343 341 339 339 338 335 333 332 331 331 330 330 328 325 321 318 315 311 308 305 303 301 299 296 293 291 288 286 282
355 354 353 352 352 351 351 350 349 348 347 347 347 346 345 344 341 339 339 338 336 334 331 330 328 327 326 325 322 319 316 312 308 304 302 301 300 296 292 289 286 282 278
356 355 355 354 353 352 351 351 350 349 349 348 347 346 346 344 342 340 339 338 338 337 335 332 330 328 326 324 322 321 319 316 312 308 305 302 299 297 292 288 284 280 276
355 355 355 354 354 353 352 351 351 351 350 348 347 345 344 344 343 343 341 339 338 336 335 333 330 329 328 326 325 324 322 320 316 312 308 304 301 299 295 290 286 281 278
354 354 354 354 355 354 353 352 352 351 350 349 348 347 346 345 344 343 341 340 339 337 336 333 331 330 328 326 324 324 324 322 319 315 312 308 304 301 298 294 288 284 281
356 355 355 355 355 354 353 352 351 351 350 349 349 348 347 345 344 343 341 340 339 338 337 336 334 333 330 327 325 324 324 323 320 317 314 311 307 304 300 297 292 288 285
Height
5763 5759 5756 5753 5749 5746 5743 5740 5737 5735 5732 5730 5727 5725 5723 5721 5719 5716 5714 5712 5711 5709 5708 5706 5705 5704 5702 5701 5700 5699 5699 5698 5699 5699 5698 5699 5700 5702 5703 5705 5707 5709 5711
5758 5754 5751 5747 5744 5741 5738 5735 5732 5729 5726 5723 5721 5719 5717 5715 5712 5710 5708 5706 5704 5703 5701 5699 5698 5697 5695 5694 5693 5692 5691 5690 5690 5690 5690 5690 5691 5692 5694 5696 5698 5699 5701
5753 5749 5746 5742 5739 5736 5732 5729 5726 5723 5720 5717 5715 5713 5710 5708 5706 5704 5702 5700 5698 5696 5695 5693 5691 5690 5688 5687 5686 5685 5684 5683 5682 5682 5682 5682 5682 5683 5685 5687 5689 5690 5692
5748 5744 5741 5737 5734 5731 5727 5724 5721 5718 5715 5712 5709 5707 5705 5702 5700 5699 5697 5695 5693 5690 5689 5687 5685 5683 5681 5680 5679 5678 5677 5676 5675 5674 5674 5674 5674 5675 5677 5678 5680 5682 5683
5743 5740 5736 5733 5729 5726 5722 5719 5716 5713 5710 5707 5704 5702 5699 5697 5695 5693 5692 5689 5688 5685 5683 5681 5679 5677 5675 5674 5673 5671 5670 5669 5668 5667 5667 5667 5667 5668 5669 5670 5672 5673 5675
5739 5736 5732 5728 5725 5721 5718 5715 5712 5709 5706 5703 5700 5697 5695 5693 5691 5689 5687 5684 5682 5680 5678 5676 5674 5672 5670 5668 5667 5665 5664 5663 5662 5661 5661 5660 5660 5660 5661 5662 5663 5665 5667
5735 5732 5728 5725 5721 5718 5715 5712 5709 5705 5702 5699 5696 5694 5691 5689 5687 5684 5682 5680 5678 5676 5674 5671 5669 5667 5665 5663 5661 5660 5658 5657 5656 5655 5654 5653 5653 5653 5654 5655 5656 5657 5658
5731 5729 5725 5722 5719 5716 5712 5709 5706 5703 5699 5696 5693 5690 5688 5686 5683 5681 5679 5677 5674 5672 5669 5667 5665 5662 5660 5658 5656 5654 5653 5651 5650 5649 5648 5647 5646 5646 5647 5648 5648 5650 5651
5729 5726 5723 5720 5717 5714 5711 5708 5705 5701 5698 5694 5691 5688 5685 5683 5680 5678 5675 5673 5670 5668 5665 5663 5660 5658 5656 5653 5651 5649 5647 5646 5645 5643 5642 5641 5641 5641 5641 5641 5642 5643 5643
5728 5725 5722 5719 5716 5712 5710 5707 5703 5700 5697 5693 5690 5686 5683 5680 5678 5675 5672 5669 5667 5664 5661 5658 5656 5653 5651 5648 5646 5644 5643 5641 5640 5638 5637 5636 5636 5635 5635 5635 5635 5636 5636
5727 5724 5721 5717 5715 5712 5708 5705 5702 5699 5695 5692 5688 5685 5682 5678 5675 5672 5669 5666 5663 5660 5657 5654 5651 5649 5646 5644 5641 5640 5638 5636 5635 5634 5633 5632 5630 5630 5629 5629 5629 5629 5630
5726 5723 5720 5717 5714 5711 5708 5704 5701 5698 5694 5691 5687 5683 5680 5677 5673 5670 5666 5663 5660 5657 5653 5650 5647 5645 5642 5640 5637 5635 5634 5632 5631 5629 5628 5627 5626 5625 5624 5623 5623 5623 5623
5725 5722 5719 5716 5713 5710 5707 5703 5700 5696 5693 5689 5685 5682 5678 5674 5671 5667 5664 5660 5657 5654 5650 5647 5644 5641 5638 5636 5634 5631 5630 5628 5626 5625 5623 5622 5621 5620 5619 5618 5617 5617 5617
5725 5722 5719 5716 5712 5709 5706 5702 5698 5695 5691 5687 5684 5680 5676 5672 5669 5665 5661 5658 5655 5651 5648 5644 5641 5638 5635 5633 5630 5628 5626 5624 5622 5621 5619 5617 5616 5614 5613 5613 5612 5611 5611
5724 5721 5718 5715 5712 5708 5705 5701 5697 5693 5689 5686 5682 5678 5674 5670 5667 5663 5659 5656 5652 5649 5645 5642 5638 5635 5633 5630 5627 5624 5622 5620 5618 5617 5615 5613 5611 5610 5608 5607 5607 5606 5605
5723 5721 5717 5714 5711 5707 5704 5700 5695 5691 5687 5684 5680 5676 5672 5668 5665 5661 5657 5653 5649 5646 5642 5639 5635 5632 5629 5626 5624 5621 5619 5616 5614 5612 5610 5608 5606 5605 5603 5602 5601 5600 5599
5723 5719 5716 5713 5710 5706 5702 5698 5694 5690 5686 5682 5678 5674 5670 5666 5663 5659 5655 5651 5647 5643 5640 5636 5633 5629 5626 5623 5620 5618 5615 5612 5610 5608 5605 5603 5601 5600 5598 5596 5595 5594 5593
5722 5719 5716 5712 5709 5705 5701 5697 5692 5688 5685 5680 5676 5672 5668 5664 5660 5656 5652 5648 5645 5641 5637 5633 5630 5626 5623 5619 5616 5614 5611 5608 5606 5603 5601 5599 5596 5595 5593 5591 5589 5588 5587
5722 5719 5715 5712 5708 5704 5699 5695 5691 5687 5683 5678 5674 5670 5666 5662 5658 5653 5649 5645 5642 5638 5634 5630 5626 5622 5619 5615 5612 5609 5606 5603 5601 5598 5596 5594 5591 5589 5587 5585 5583 5582 5581
5721 5718 5715 5711 5707 5702 5698 5694 5690 5685 5681 5676 5672 5668 5663 5659 5655 5651 5646 5642 5638 5634 5630 5627 5622 5618 5615 5611 5608 5604 5601 5598 5595 5592 5590 5588 5585 5583 5581 5579 5577 5576 5574
5721 5717 5714 5710 5705 5701 5697 5693 5688 5684 5679 5674 5670 5665 5661 5656 5652 5647 5643 5639 5635 5631 5627 5623 5618 5614 5610 5606 5603 5599 5596 5592 5589 5586 5584 5581 5578 5576 5574 5572 5570 5568 5567
5720 5716 5713 5708 5704 5700 5695 5691 5687 5682 5677 5672 5667 5663 5658 5653 5649 5644 5640 5635 5631 5626 5622 5618 5614 5609 5605 5601 5597 5593 5590 5586 5582 5579 5576 5574 5571 5568 5566 5564 5562 5560 5559
5719 5715 5712 5707 5703 5699 5694 5689 5685 5680 5675 5670 5665 5660 5655 5651 5646 5641 5636 5631 5627 5622 5618 5613 5608 5604 5600 5595 5591 5587 5582 5579 5575 5572 5569 5566 5563 5560 5557 5555 5553 5551 5550
5718 5714 5711 5706 5702 5697 5693 5688 5683 5678 5673 5668 5663 5658 5653 5648 5643 5638 5633 5628 5623 5618 5613 5608 5603 5598 5594 5589 5584 5580 5575 5571 5567 5564 5560 5557 5554 5551 5548 5546 5544 5542 5541
5717 5713 5709 5705 5701 5696 5691 5686 5681 5676 5671 5665 5660 5655 5650 5645 5640 5635 5629 5624 5618 5613 5608 5603 5597 5592 5587 5583 5578 5573 5569 5564 5560 5556 5552 5548 5545 5542 5539 5537 5535 5533 5532
5716 5712 5708 5704 5699 5695 5690 5684 5679 5674 5669 5663 5658 5653 5648 5642 5637 5631 5625 5620 5614 5608 5603 5597 5592 5587 5582 5577 5572 5567 5562 5557 5552 5548 5543 5540 5536 5533 5530 5528 5526 5524 5523